Weather History for Driggs, ID

Change the Weather History Date:

Saturday, December 7, 2013

  Actual Average (KRXE) Record (KRXE)
Temperature  
Mean Temperature 8 °F 22 °F  
Max Temperature 14 °F 30 °F 44 °F (2003)
Min Temperature 3 °F 14 °F -14 °F (2005)
Degree Days  
Heating Degree Days 56 43  
Month to date heating degree days 296  
Since 1 July heating degree days 2308  
Cooling Degree Days 0 0  
Month to date cooling degree days 0  
Year to date cooling degree days 208  
Moisture  
Dew Point 6 °F    
Average Humidity 82    
Maximum Humidity 92    
Minimum Humidity 70    
Precipitation  
Precipitation 0.00 in 0.02 in 0.30 in (1980)
Month to date precipitation 0.18  
Year to date precipitation 12.21  
Sea Level Pressure  
Sea Level Pressure 29.73 in    
Wind  
Wind Speed 6 mph (NNW)    
Max Wind Speed 10 mph    
Max Gust Speed -    
Visibility 4 miles    
Events Snow    
T = Trace of Precipitation, MM = Missing Value Source: NWS Daily Summary

Daily Weather History Graph

Daily Weather History Graph

Search for Another Location

Airport:

Trip Planner

Search our weather history database for the weather conditions in past years. The results will help you decide how hot, cold, wet, or windy it might be!

Date:

Astronomy

Dec. 07, 2013 Rise Set
Actual Time 7:44 AM MST 4:47 PM MST
Civil Twilight 7:12 AM MST 5:19 PM MST
Nautical Twilight 6:36 AM MST 5:55 PM MST
Astronomical Twilight 6:01 AM MST 6:30 PM MST
Moon 11:25 AM MST (12/7) 10:40 PM MST (12/7)
Length of Visible Light 10h 07m
Length of Day
9h 02m
Waxing Crescent, 30% of the Moon is Illuminated
Dec 7
Waxing Crescent
Dec 9
First Quarter
Dec 17
Full
Dec 25
Last Quarter
Jan 1
New

Hourly Weather History & Observations

Time (MST) Temp. Windchill Dew Point Humidity Pressure Visibility Wind Dir Wind Speed Gust Speed Precip Events Conditions
12:56 AM 3.0 °F -6.4 °F -4.9 °F 70% 30.07 in 10.0 mi NNE 4.6 mph - N/A   Overcast
1:56 AM 3.0 °F -9.3 °F -4.0 °F 73% 30.05 in 10.0 mi NW 6.9 mph - N/A   Overcast
2:56 AM 5.0 °F -5.6 °F -2.9 °F 70% 30.01 in 10.0 mi North 5.8 mph - N/A   Overcast
3:56 AM 5.0 °F -6.9 °F -2.9 °F 70% 29.96 in 10.0 mi North 6.9 mph - N/A   Mostly Cloudy
4:56 AM 5.0 °F -2.1 °F -1.8 °F 73% 29.95 in 10.0 mi NE 3.5 mph - N/A   Overcast
5:56 AM 5.0 °F -2.1 °F -0.9 °F 76% 29.95 in 10.0 mi NNE 3.5 mph - N/A   Overcast
6:56 AM 7.2 °F -4.3 °F 1.0 °F 76% 29.94 in 10.0 mi North 6.9 mph - N/A   Overcast
7:56 AM 8.1 °F -2.0 °F 2.1 °F 77% 29.91 in 10.0 mi North 5.8 mph - N/A   Overcast
8:56 AM 9.1 °F -3.0 °F 4.1 °F 80% 29.90 in 10.0 mi NNW 8.1 mph - N/A   Overcast
9:56 AM 11.1 °F 1.7 °F 3.0 °F 70% 29.85 in 10.0 mi North 5.8 mph - N/A   Overcast
10:56 AM 12.0 °F -0.4 °F 6.1 °F 77% 29.87 in 7.0 mi NNW 9.2 mph - 0.00 in Snow Light Snow
11:39 AM 12.2 °F 0.7 °F 8.6 °F 85% 29.65 in 2.5 mi NNW 8.1 mph - 0.00 in Snow Light Snow
11:45 AM 12.2 °F -1.0 °F 8.6 °F 85% 29.65 in 1.5 mi NNW 10.4 mph - 0.00 in Snow Light Snow
11:56 AM 13.1 °F 1.8 °F 8.1 °F 80% 29.86 in 1.2 mi NNW 8.1 mph - 0.00 in Snow Light Snow
12:07 PM 12.2 °F -0.2 °F 8.6 °F 85% 29.63 in 1.5 mi NNW 9.2 mph - 0.00 in Snow Light Snow
12:23 PM 12.2 °F 0.7 °F 8.6 °F 85% 29.63 in 1.0 mi NW 8.1 mph - 0.00 in Snow Light Snow
12:40 PM 12.2 °F 0.7 °F 8.6 °F 85% 29.62 in 1.2 mi WNW 8.1 mph - 0.00 in Snow Light Snow
12:56 PM 12.0 °F 0.5 °F 8.1 °F 84% 29.79 in 1.0 mi NW 8.1 mph - 0.00 in Snow Light Snow
1:26 PM 12.2 °F 0.7 °F 8.6 °F 85% 29.60 in 1.2 mi NW 8.1 mph - 0.00 in Snow Light Snow
1:34 PM 12.2 °F 0.7 °F 8.6 °F 85% 29.60 in 1.5 mi NW 8.1 mph - 0.00 in Snow Light Snow
1:40 PM 12.2 °F 1.7 °F 8.6 °F 85% 29.60 in 2.0 mi NW 6.9 mph - 0.00 in Snow Light Snow
1:56 PM 12.0 °F 0.5 °F 8.1 °F 84% 29.77 in 4.0 mi NW 8.1 mph - 0.00 in   Overcast
2:16 PM 12.2 °F 1.7 °F 8.6 °F 85% 29.59 in 7.0 mi NW 6.9 mph - 0.00 in Snow Light Snow
2:29 PM 12.2 °F 2.9 °F 8.6 °F 85% 29.59 in 3.0 mi NW 5.8 mph - 0.00 in Snow Light Snow
2:36 PM 12.2 °F 4.3 °F 8.6 °F 85% 29.59 in 2.0 mi NNW 4.6 mph - 0.00 in Snow Light Snow
2:45 PM 14.0 °F 6.5 °F 8.6 °F 79% 29.59 in 1.5 mi NNW 4.6 mph - 0.00 in Snow Light Snow
2:56 PM 14.0 °F 6.5 °F 9.1 °F 81% 29.75 in 1.0 mi NNW 4.6 mph - 0.00 in Snow Light Snow
3:05 PM 14.0 °F 6.5 °F 8.6 °F 79% 29.59 in 1.2 mi NNW 4.6 mph - 0.00 in Snow Light Snow
3:12 PM 14.0 °F 6.5 °F 8.6 °F 79% 29.59 in 1.8 mi NNW 4.6 mph - 0.00 in Snow Light Snow
3:21 PM 12.2 °F 4.3 °F 8.6 °F 85% 29.60 in 2.5 mi NW 4.6 mph - 0.00 in Snow Light Snow
3:30 PM 12.2 °F 6.1 °F 8.6 °F 85% 29.60 in 4.0 mi NNW 3.5 mph - 0.00 in Snow Light Snow
3:56 PM 12.0 °F - 7.2 °F 81% 29.77 in 10.0 mi Calm Calm - 0.00 in   Mostly Cloudy
4:56 PM 13.1 °F 7.1 °F 9.1 °F 84% 29.79 in 8.0 mi North 3.5 mph - N/A   Overcast
5:02 PM 12.2 °F 4.3 °F 8.6 °F 85% 29.62 in 2.5 mi NNE 4.6 mph - 0.00 in Snow Light Snow
5:06 PM 12.2 °F 4.3 °F 8.6 °F 85% 29.62 in 1.2 mi NNE 4.6 mph - 0.00 in Snow Light Snow
5:11 PM 12.2 °F 4.3 °F 8.6 °F 85% 29.62 in 0.8 mi NNE 4.6 mph - 0.00 in Snow Light Snow
5:16 PM 12.2 °F 4.3 °F 8.6 °F 85% 29.62 in 1.0 mi NNE 4.6 mph - 0.00 in Snow Light Snow
5:20 PM 12.2 °F 6.1 °F 8.6 °F 85% 29.63 in 1.5 mi NNE 3.5 mph - 0.00 in Snow Light Snow
5:29 PM 12.2 °F 6.1 °F 8.6 °F 85% 29.63 in 3.0 mi NE 3.5 mph - 0.00 in Snow Light Snow
5:40 PM 12.2 °F 6.1 °F 8.6 °F 85% 29.63 in 2.5 mi NNE 3.5 mph - 0.00 in Snow Light Snow
5:56 PM 12.0 °F - 9.1 °F 88% 29.80 in 3.0 mi Calm Calm - 0.00 in Snow Light Snow
6:36 PM 12.2 °F - 8.6 °F 85% 29.64 in 2.5 mi Calm Calm - 0.00 in Snow Light Snow
6:56 PM 12.0 °F - 9.1 °F 88% 29.81 in 3.0 mi Calm Calm - 0.00 in Snow Light Snow
7:03 PM 12.2 °F - 8.6 °F 85% 29.65 in 2.5 mi Calm Calm - 0.00 in Snow Light Snow
7:30 PM 12.2 °F - 8.6 °F 85% 29.66 in 3.0 mi Calm Calm - 0.00 in Snow Light Snow
7:56 PM 12.0 °F 5.9 °F 8.1 °F 84% 29.83 in 4.0 mi North 3.5 mph - 0.00 in Snow Light Snow
8:14 PM 12.2 °F - 8.6 °F 85% 29.67 in 2.5 mi Calm Calm - 0.00 in Snow Light Snow
8:31 PM 10.4 °F - 8.6 °F 92% 29.68 in 1.8 mi Calm Calm - 0.00 in Snow Light Snow
8:39 PM 12.2 °F 6.1 °F 8.6 °F 85% 29.68 in 2.0 mi Variable 3.5 mph - 0.00 in Snow Light Snow
8:56 PM 10.0 °F 1.8 °F 7.2 °F 88% 29.85 in 1.5 mi NNW 4.6 mph - 0.00 in Snow Light Snow
8:58 PM 10.4 °F 0.8 °F 6.8 °F 85% 29.68 in 1.2 mi NNW 5.8 mph - 0.00 in Snow Light Snow
9:16 PM 8.6 °F -2.6 °F 5.0 °F 85% 29.69 in 1.5 mi NW 6.9 mph - 0.00 in Snow Light Snow
9:35 PM 6.8 °F -4.8 °F 3.2 °F 85% 29.70 in 1.8 mi NNW 6.9 mph - 0.00 in Snow Light Snow
9:45 PM 6.8 °F -4.8 °F 3.2 °F 85% 29.70 in 3.0 mi NNW 6.9 mph - 0.00 in Snow Light Snow
9:56 PM 7.2 °F -4.3 °F 3.0 °F 83% 29.87 in 10.0 mi North 6.9 mph - 0.00 in Snow Light Snow
10:07 PM 6.8 °F -5.9 °F 3.2 °F 85% 29.70 in 6.0 mi North 8.1 mph - 0.00 in Snow Light Snow
10:17 PM 6.8 °F -4.8 °F 3.2 °F 85% 29.71 in 1.8 mi North 6.9 mph - 0.00 in Snow Light Snow
10:30 PM 6.8 °F -4.8 °F 3.2 °F 85% 29.71 in 2.0 mi NNW 6.9 mph - 0.00 in Snow Light Snow
10:36 PM 6.8 °F -4.8 °F 1.4 °F 79% 29.71 in 6.0 mi NW 6.9 mph - 0.00 in Snow Light Snow
10:56 PM 5.0 °F -9.1 °F 0.1 °F 80% 29.89 in 7.0 mi NNE 9.2 mph - 0.00 in Snow Light Snow
11:03 PM 5.0 °F -6.9 °F 1.4 °F 85% 29.73 in 8.0 mi North 6.9 mph - 0.00 in   Overcast
11:19 PM 5.0 °F -6.9 °F -0.4 °F 78% 29.73 in 9.0 mi North 6.9 mph - 0.00 in Snow Light Snow
11:56 PM 4.1 °F -10.2 °F -0.9 °F 80% 29.92 in 1.8 mi NNE 9.2 mph - 0.00 in Snow Light Snow